Language: 


Des rapports , des résumés tant et plus, au choix de chacun....


Données Historiques de Météogheer
Journalier Rapport pour Janvier 9, 2018 Unitée:  Métrique    Impériale   Les deux
Suivant Jour »
Journalier Hebdomadaire Mensuel Annuel Sur mesure
  Max: Min: Moyenne:
Température: 5.8 °C 0.5 °C 3 °C
Point de rosée: 6.0 °C 1.0 °C 3.1 °C
Humidité: 98% 98% 98%
Vent: 16.6km/h 0.0km/h 3.2km/h
Rafales: 17.2km/h - -
Vent- - SSE
Pression: 1014.1 hPa 1006.0 hPa -
Pluie: 0.0 mm    
Historical Graphs
 
 
Données tabulaires pour Janvier 9, 2018
Heure Température Point de rosée Pression Vent Vent Rafales Humidité Pluie Taux (Horaire) Conditions
00:00 1.8 °C 2.0 °C 1014.1 hPa Calm   6.9 km/h 98% 0.0 mm
00:01 1.8 °C 2.0 °C 1014.1 hPa Calm   6.9 km/h 98% 0.0 mm
00:03 1.8 °C 2.0 °C 1014.1 hPa NE 4.0 km/h 6.4 km/h 98% 0.0 mm
00:04 1.7 °C 2.0 °C 1014.1 hPa NE 6.1 km/h 6.1 km/h 98% 0.0 mm
00:06 1.8 °C 2.0 °C 1014.1 hPa ENE 6.1 km/h 6.4 km/h 98% 0.0 mm
00:08 1.8 °C 2.0 °C 1014.1 hPa ENE 5.5 km/h 6.4 km/h 98% 0.0 mm
00:09 1.8 °C 2.0 °C 1014.1 hPa NE 6.4 km/h 6.4 km/h 98% 0.0 mm
00:10 1.8 °C 2.0 °C 1014.1 hPa NE 3.2 km/h 6.4 km/h 98% 0.0 mm
00:11 1.8 °C 2.0 °C 1014.1 hPa Calm   6.4 km/h 98% 0.0 mm
00:13 1.8 °C 2.0 °C 1014.1 hPa ENE 5.5 km/h 6.4 km/h 98% 0.0 mm
00:14 1.8 °C 2.0 °C 1014.1 hPa ENE 5.0 km/h 6.9 km/h 98% 0.0 mm
00:16 1.8 °C 2.0 °C 1014.1 hPa Calm   6.9 km/h 98% 0.0 mm
00:17 1.8 °C 2.0 °C 1014.1 hPa Calm   6.9 km/h 98% 0.0 mm
00:18 1.8 °C 2.0 °C 1014.1 hPa Calm   6.9 km/h 98% 0.0 mm
00:21 1.7 °C 2.0 °C 1014.1 hPa ENE 4.0 km/h 6.9 km/h 98% 0.0 mm
00:22 1.8 °C 2.0 °C 1014.1 hPa ENE 5.8 km/h 6.9 km/h 98% 0.0 mm
00:26 1.8 °C 2.0 °C 1014.1 hPa Calm   6.1 km/h 98% 0.0 mm
00:28 1.8 °C 2.0 °C 1014.1 hPa Calm   6.1 km/h 98% 0.0 mm
00:33 1.7 °C 2.0 °C 1014.1 hPa ENE 4.0 km/h 6.1 km/h 98% 0.0 mm
00:38 1.7 °C 2.0 °C 1014.1 hPa Calm   6.1 km/h 98% 0.0 mm
00:40 1.7 °C 2.0 °C 1014.1 hPa NE 5.5 km/h 6.1 km/h 98% 0.0 mm
00:43 1.7 °C 2.0 °C 1013.1 hPa Calm   5.8 km/h 98% 0.0 mm
00:47 1.7 °C 2.0 °C 1013.1 hPa ENE 6.1 km/h 7.9 km/h 98% 0.0 mm
00:48 1.8 °C 2.0 °C 1013.1 hPa NE 6.9 km/h 7.9 km/h 98% 0.0 mm
00:53 1.8 °C 2.0 °C 1013.1 hPa NE 6.1 km/h 8.7 km/h 98% 0.0 mm
00:56 1.8 °C 2.0 °C 1012.1 hPa Calm   8.7 km/h 98% 0.0 mm
00:57 1.8 °C 2.0 °C 1012.1 hPa Calm   8.7 km/h 98% 0.0 mm
00:59 1.9 °C 2.0 °C 1012.1 hPa Calm   7.9 km/h 98% 0.0 mm
01:00 1.9 °C 2.0 °C 1012.1 hPa NE 6.9 km/h 7.9 km/h 98% 0.0 mm
01:04 1.9 °C 2.0 °C 1012.1 hPa NE 9.0 km/h 9.0 km/h 98% 0.0 mm
01:05 1.9 °C 2.0 °C 1012.1 hPa NE 7.9 km/h 9.0 km/h 98% 0.0 mm
01:06 1.9 °C 2.0 °C 1012.1 hPa NE 5.8 km/h 9.0 km/h 98% 0.0 mm
01:09 1.9 °C 2.0 °C 1012.1 hPa NE 5.8 km/h 9.0 km/h 98% 0.0 mm
01:12 1.8 °C 2.0 °C 1013.1 hPa ENE 4.7 km/h 9.0 km/h 98% 0.0 mm
01:13 1.8 °C 2.0 °C 1013.1 hPa NE 6.1 km/h 9.0 km/h 98% 0.0 mm
01:14 1.8 °C 2.0 °C 1013.1 hPa ENE 5.8 km/h 9.0 km/h 98% 0.0 mm
01:15 1.8 °C 2.0 °C 1013.1 hPa NE 8.7 km/h 9.0 km/h 98% 0.0 mm
01:16 1.8 °C 2.0 °C 1013.1 hPa NE 6.9 km/h 9.0 km/h 98% 0.0 mm
01:19 1.8 °C 2.0 °C 1013.1 hPa NE 5.0 km/h 9.0 km/h 98% 0.0 mm
01:21 1.8 °C 2.0 °C 1013.1 hPa Calm   9.0 km/h 98% 0.0 mm
01:22 1.8 °C 2.0 °C 1013.1 hPa Calm   9.0 km/h 98% 0.0 mm
01:23 1.8 °C 2.0 °C 1013.1 hPa Calm   9.0 km/h 98% 0.0 mm
01:28 1.7 °C 2.0 °C 1013.1 hPa Calm   6.9 km/h 98% 0.0 mm
01:29 1.7 °C 2.0 °C 1013.1 hPa Calm   6.9 km/h 98% 0.0 mm
01:31 1.7 °C 2.0 °C 1013.1 hPa NE 4.7 km/h 6.9 km/h 98% 0.0 mm
01:33 1.7 °C 2.0 °C 1013.1 hPa Calm   6.9 km/h 98% 0.0 mm
01:35 1.7 °C 2.0 °C 1013.1 hPa Calm   6.9 km/h 98% 0.0 mm
01:38 1.7 °C 2.0 °C 1013.1 hPa Calm   6.9 km/h 98% 0.0 mm
01:39 1.6 °C 2.0 °C 1013.1 hPa Calm   6.4 km/h 98% 0.0 mm
01:42 1.6 °C 2.0 °C 1013.1 hPa Calm   4.7 km/h 98% 0.0 mm
01:47 1.5 °C 2.0 °C 1013.1 hPa NE 5.5 km/h 5.5 km/h 98% 0.0 mm
01:51 1.5 °C 2.0 °C 1013.1 hPa Calm   5.5 km/h 98% 0.0 mm
01:56 1.4 °C 1.0 °C 1013.1 hPa Calm   5.5 km/h 98% 0.0 mm
01:57 1.4 °C 1.0 °C 1012.1 hPa Calm   5.5 km/h 98% 0.0 mm
01:59 1.4 °C 1.0 °C 1012.1 hPa Calm   3.2 km/h 98% 0.0 mm
02:00 1.4 °C 1.0 °C 1012.1 hPa Calm   3.2 km/h 98% 0.0 mm
02:01 1.4 °C 1.0 °C 1012.1 hPa Calm   1.4 km/h 98% 0.0 mm
02:03 1.4 °C 1.0 °C 1012.1 hPa Calm   1.4 km/h 98% 0.0 mm
02:06 1.4 °C 1.0 °C 1012.1 hPa NNE 5.0 km/h 5.5 km/h 98% 0.0 mm
02:07 1.4 °C 1.0 °C 1012.1 hPa NNE 1.8 km/h 5.5 km/h 98% 0.0 mm
02:08 1.4 °C 1.0 °C 1012.1 hPa NNE 3.5 km/h 5.5 km/h 98% 0.0 mm
02:09 1.5 °C 2.0 °C 1012.1 hPa NE 5.0 km/h 5.8 km/h 98% 0.0 mm
02:12 1.5 °C 2.0 °C 1012.1 hPa NE 5.8 km/h 6.1 km/h 98% 0.0 mm
02:13 1.5 °C 2.0 °C 1012.1 hPa North 7.6 km/h 9.3 km/h 98% 0.0 mm
02:14 1.4 °C 1.0 °C 1012.1 hPa NNE 7.9 km/h 9.3 km/h 98% 0.0 mm
02:16 1.4 °C 1.0 °C 1012.1 hPa NNE 5.0 km/h 9.3 km/h 98% 0.0 mm
02:17 1.4 °C 1.0 °C 1012.1 hPa Calm   9.3 km/h 98% 0.0 mm
02:18 1.4 °C 1.0 °C 1012.1 hPa NNE 5.0 km/h 9.3 km/h 98% 0.0 mm
02:20 1.4 °C 1.0 °C 1012.1 hPa NNE 5.5 km/h 9.3 km/h 98% 0.0 mm
02:21 1.4 °C 1.0 °C 1012.1 hPa North 6.4 km/h 9.3 km/h 98% 0.0 mm
02:23 1.4 °C 1.0 °C 1012.1 hPa NNE 4.7 km/h 8.7 km/h 98% 0.0 mm
02:24 1.4 °C 1.0 °C 1012.1 hPa North 4.0 km/h 7.6 km/h 98% 0.0 mm
02:26 1.4 °C 1.0 °C 1011.1 hPa NNE 5.5 km/h 7.6 km/h 98% 0.0 mm
02:30 1.4 °C 1.0 °C 1011.1 hPa NNE 6.4 km/h 9.7 km/h 98% 0.0 mm
02:31 1.4 °C 1.0 °C 1011.1 hPa NE 1.8 km/h 9.7 km/h 98% 0.0 mm
02:32 1.4 °C 1.0 °C 1011.1 hPa North 4.3 km/h 9.7 km/h 98% 0.0 mm
02:33 1.4 °C 1.0 °C 1011.1 hPa NNE 4.0 km/h 9.7 km/h 98% 0.0 mm
02:38 1.4 °C 1.0 °C 1011.1 hPa NNE 5.8 km/h 9.7 km/h 98% 0.0 mm
02:39 1.4 °C 1.0 °C 1011.1 hPa NNE 6.4 km/h 10.1 km/h 98% 0.0 mm
02:43 1.4 °C 1.0 °C 1012.1 hPa NE 4.3 km/h 10.1 km/h 98% 0.0 mm
02:44 1.4 °C 1.0 °C 1012.1 hPa Calm   10.1 km/h 98% 0.0 mm
02:48 1.4 °C 1.0 °C 1012.1 hPa NNE 5.8 km/h 10.1 km/h 98% 0.0 mm
02:49 1.4 °C 1.0 °C 1012.1 hPa NNE 6.1 km/h 7.9 km/h 98% 0.0 mm
02:50 1.3 °C 1.0 °C 1012.1 hPa NE 4.7 km/h 7.9 km/h 98% 0.0 mm
02:51 1.3 °C 1.0 °C 1012.1 hPa NE 2.6 km/h 7.9 km/h 98% 0.0 mm
02:52 1.3 °C 1.0 °C 1012.1 hPa NE 6.1 km/h 7.9 km/h 98% 0.0 mm
02:54 1.3 °C 1.0 °C 1012.1 hPa NE 6.1 km/h 7.9 km/h 98% 0.0 mm
02:55 1.3 °C 1.0 °C 1012.1 hPa NE 2.6 km/h 7.9 km/h 98% 0.0 mm
02:58 1.3 °C 1.0 °C 1012.1 hPa Calm   6.4 km/h 98% 0.0 mm
03:04 1.2 °C 1.0 °C 1012.1 hPa NNE 6.4 km/h 6.9 km/h 98% 0.0 mm
03:08 1.1 °C 1.0 °C 1012.1 hPa NE 6.9 km/h 6.9 km/h 98% 0.0 mm
03:09 1.1 °C 1.0 °C 1012.1 hPa NE 5.8 km/h 6.9 km/h 98% 0.0 mm
03:11 1.1 °C 1.0 °C 1012.1 hPa NNE 5.8 km/h 8.7 km/h 98% 0.0 mm
03:12 1.2 °C 1.0 °C 1012.1 hPa Calm   8.7 km/h 98% 0.0 mm
03:13 1.2 °C 1.0 °C 1012.1 hPa Calm   8.7 km/h 98% 0.0 mm
03:16 1.1 °C 1.0 °C 1012.1 hPa Calm   8.7 km/h 98% 0.0 mm
03:18 1.1 °C 1.0 °C 1012.1 hPa Calm   8.7 km/h 98% 0.0 mm
03:21 1.1 °C 1.0 °C 1012.1 hPa Calm   2.1 km/h 98% 0.0 mm
03:23 1.0 °C 1.0 °C 1012.1 hPa Calm     98% 0.0 mm
03:24 1.0 °C 1.0 °C 1012.1 hPa NNE 1.4 km/h 5.0 km/h 98% 0.0 mm
03:26 1.0 °C 1.0 °C 1011.1 hPa NNE 3.2 km/h 5.0 km/h 98% 0.0 mm
03:28 1.0 °C 1.0 °C 1011.1 hPa NE 2.1 km/h 5.8 km/h 98% 0.0 mm
03:29 1.0 °C 1.0 °C 1011.1 hPa Calm   5.8 km/h 98% 0.0 mm
03:30 1.0 °C 1.0 °C 1011.1 hPa Calm   5.8 km/h 98% 0.0 mm
03:31 1.0 °C 1.0 °C 1011.1 hPa Calm   5.8 km/h 98% 0.0 mm
03:32 1.0 °C 1.0 °C 1011.1 hPa Calm   5.8 km/h 98% 0.0 mm
03:33 1.1 °C 1.0 °C 1011.1 hPa Calm   5.8 km/h 98% 0.0 mm
03:34 1.1 °C 1.0 °C 1011.1 hPa North 4.3 km/h 5.8 km/h 98% 0.0 mm
03:36 1.1 °C 1.0 °C 1011.1 hPa Calm   5.8 km/h 98% 0.0 mm
03:37 1.1 °C 1.0 °C 1011.1 hPa NNE 5.8 km/h 5.8 km/h 98% 0.0 mm
03:38 1.1 °C 1.0 °C 1011.1 hPa NNE 6.1 km/h 6.9 km/h 98% 0.0 mm
03:39 1.1 °C 1.0 °C 1011.1 hPa NNE 4.0 km/h 6.9 km/h 98% 0.0 mm
03:40 1.1 °C 1.0 °C 1011.1 hPa NNE 6.4 km/h 6.9 km/h 98% 0.0 mm
03:41 1.1 °C 1.0 °C 1011.1 hPa NE 6.4 km/h 6.9 km/h 98% 0.0 mm
03:42 1.1 °C 1.0 °C 1011.1 hPa NNE 5.8 km/h 6.9 km/h 98% 0.0 mm
03:44 1.1 °C 1.0 °C 1011.1 hPa NE 6.1 km/h 6.9 km/h 98% 0.0 mm
03:48 1.1 °C 1.0 °C 1011.1 hPa Calm   6.4 km/h 98% 0.0 mm
03:50 1.0 °C 1.0 °C 1011.1 hPa Calm   6.4 km/h 98% 0.0 mm
03:54 1.0 °C 1.0 °C 1011.1 hPa Calm   6.1 km/h 98% 0.0 mm
03:56 1.0 °C 1.0 °C 1011.1 hPa Calm   5.5 km/h 98% 0.0 mm
03:59 1.0 °C 1.0 °C 1011.1 hPa Calm     98% 0.0 mm
04:00 1.0 °C 1.0 °C 1011.1 hPa Calm     98% 0.0 mm
04:02 1.0 °C 1.0 °C 1011.1 hPa NE 2.6 km/h 2.6 km/h 98% 0.0 mm
04:03 1.0 °C 1.0 °C 1011.1 hPa Calm   4.0 km/h 98% 0.0 mm
04:04 1.0 °C 1.0 °C 1011.1 hPa Calm   4.0 km/h 98% 0.0 mm
04:05 1.0 °C 1.0 °C 1011.1 hPa Calm   4.0 km/h 98% 0.0 mm
04:06 1.0 °C 1.0 °C 1011.1 hPa Calm   4.0 km/h 98% 0.0 mm
04:08 1.0 °C 1.0 °C 1011.1 hPa Calm   4.0 km/h 98% 0.0 mm
04:09 1.0 °C 1.0 °C 1011.1 hPa Calm   4.0 km/h 98% 0.0 mm
04:10 1.0 °C 1.0 °C 1011.1 hPa Calm   4.0 km/h 98% 0.0 mm
04:13 1.0 °C 1.0 °C 1011.1 hPa Calm     98% 0.0 mm
04:14 1.0 °C 1.0 °C 1011.1 hPa Calm     98% 0.0 mm
04:15 1.0 °C 1.0 °C 1011.1 hPa Calm     98% 0.0 mm
04:18 1.1 °C 1.0 °C 1011.1 hPa Calm     98% 0.0 mm
04:19 1.1 °C 1.0 °C 1011.1 hPa Calm     98% 0.0 mm
04:20 1.1 °C 1.0 °C 1011.1 hPa Calm     98% 0.0 mm
04:21 1.1 °C 1.0 °C 1011.1 hPa Calm     98% 0.0 mm
04:22 1.1 °C 1.0 °C 1011.1 hPa Calm     98% 0.0 mm
04:23 1.1 °C 1.0 °C 1011.1 hPa Calm     98% 0.0 mm
04:24 1.1 °C 1.0 °C 1011.1 hPa Calm     98% 0.0 mm
04:25 1.1 °C 1.0 °C 1011.1 hPa Calm     98% 0.0 mm
04:26 1.1 °C 1.0 °C 1011.1 hPa Calm     98% 0.0 mm
04:27 1.1 °C 1.0 °C 1011.1 hPa Calm   3.5 km/h 98% 0.0 mm
04:28 1.1 °C 1.0 °C 1011.1 hPa Calm   3.5 km/h 98% 0.0 mm
04:29 1.1 °C 1.0 °C 1011.1 hPa Calm   3.5 km/h 98% 0.0 mm
04:30 1.1 °C 1.0 °C 1011.1 hPa Calm   3.5 km/h 98% 0.0 mm
04:32 1.1 °C 1.0 °C 1011.1 hPa Calm   3.5 km/h 98% 0.0 mm
04:33 1.1 °C 1.0 °C 1011.1 hPa Calm   3.5 km/h 98% 0.0 mm
04:34 1.1 °C 1.0 °C 1011.1 hPa Calm   3.5 km/h 98% 0.0 mm
04:35 1.1 °C 1.0 °C 1011.1 hPa Calm   3.5 km/h 98% 0.0 mm
04:36 1.1 °C 1.0 °C 1011.1 hPa Calm   3.5 km/h 98% 0.0 mm
04:37 1.0 °C 1.0 °C 1011.1 hPa Calm     98% 0.0 mm
04:38 1.0 °C 1.0 °C 1011.1 hPa Calm     98% 0.0 mm
04:41 1.0 °C 1.0 °C 1011.1 hPa Calm     98% 0.0 mm
04:42 1.0 °C 1.0 °C 1011.1 hPa NNE 3.2 km/h 4.7 km/h 98% 0.0 mm
04:43 1.0 °C 1.0 °C 1011.1 hPa NNE 4.3 km/h 5.0 km/h 98% 0.0 mm
04:44 1.0 °C 1.0 °C 1011.1 hPa Calm   5.0 km/h 98% 0.0 mm
04:46 1.0 °C 1.0 °C 1011.1 hPa Calm   5.0 km/h 98% 0.0 mm
04:48 1.0 °C 1.0 °C 1011.1 hPa Calm   5.0 km/h 98% 0.0 mm
04:50 1.0 °C 1.0 °C 1011.1 hPa Calm   5.0 km/h 98% 0.0 mm
04:52 1.0 °C 1.0 °C 1011.1 hPa Calm   5.0 km/h 98% 0.0 mm
04:53 1.0 °C 1.0 °C 1011.1 hPa NNE 3.5 km/h 5.0 km/h 98% 0.0 mm
04:54 1.0 °C 1.0 °C 1011.1 hPa NNE 2.6 km/h 4.3 km/h 98% 0.0 mm
04:55 1.0 °C 1.0 °C 1011.1 hPa Calm   4.3 km/h 98% 0.0 mm
04:56 1.0 °C 1.0 °C 1011.1 hPa Calm   4.3 km/h 98% 0.0 mm
04:59 1.0 °C 1.0 °C 1011.1 hPa Calm   4.3 km/h 98% 0.0 mm
05:00 1.0 °C 1.0 °C 1011.1 hPa Calm   4.3 km/h 98% 0.0 mm
05:02 1.1 °C 1.0 °C 1011.1 hPa Calm   3.5 km/h 98% 0.0 mm
05:03 1.1 °C 1.0 °C 1011.1 hPa Calm   3.5 km/h 98% 0.0 mm
05:08 1.0 °C 1.0 °C 1011.1 hPa Calm   4.3 km/h 98% 0.0 mm
05:09 1.0 °C 1.0 °C 1011.1 hPa Calm   4.3 km/h 98% 0.0 mm
05:11 1.0 °C 1.0 °C 1010.0 hPa Calm   4.3 km/h 98% 0.0 mm
05:14 1.0 °C 1.0 °C 1010.0 hPa Calm   4.3 km/h 98% 0.0 mm
05:16 1.0 °C 1.0 °C 1010.0 hPa Calm     98% 0.0 mm
05:17 1.0 °C 1.0 °C 1010.0 hPa Calm     98% 0.0 mm
05:18 1.0 °C 1.0 °C 1010.0 hPa Calm     98% 0.0 mm
05:20 1.0 °C 1.0 °C 1010.0 hPa Calm     98% 0.0 mm
05:23 0.9 °C 1.0 °C 1010.0 hPa Calm     98% 0.0 mm
05:24 0.9 °C 1.0 °C 1010.0 hPa Calm     98% 0.0 mm
05:25 0.9 °C 1.0 °C 1010.0 hPa Calm     98% 0.0 mm
05:26 0.9 °C 1.0 °C 1010.0 hPa Calm     98% 0.0 mm
05:28 0.9 °C 1.0 °C 1010.0 hPa Calm     98% 0.0 mm
05:29 0.9 °C 1.0 °C 1010.0 hPa Calm     98% 0.0 mm
05:32 0.8 °C 1.0 °C 1010.0 hPa Calm     98% 0.0 mm
05:34 0.8 °C 1.0 °C 1010.0 hPa Calm     98% 0.0 mm
05:36 0.8 °C 1.0 °C 1010.0 hPa Calm     98% 0.0 mm
05:37 0.8 °C 1.0 °C 1010.0 hPa Calm     98% 0.0 mm
05:39 0.8 °C 1.0 °C 1010.0 hPa Calm     98% 0.0 mm
05:40 0.8 °C 1.0 °C 1010.0 hPa Calm   4.0 km/h 98% 0.0 mm
05:41 0.8 °C 1.0 °C 1009.0 hPa Calm   4.0 km/h 98% 0.0 mm
05:42 0.8 °C 1.0 °C 1009.0 hPa Calm   4.0 km/h 98% 0.0 mm
05:43 0.8 °C 1.0 °C 1009.0 hPa Calm   4.0 km/h 98% 0.0 mm
05:45 0.8 °C 1.0 °C 1009.0 hPa Calm   4.0 km/h 98% 0.0 mm
05:46 0.9 °C 1.0 °C 1009.0 hPa Calm   4.0 km/h 98% 0.0 mm
05:47 0.9 °C 1.0 °C 1009.0 hPa Calm   4.0 km/h 98% 0.0 mm
05:48 0.9 °C 1.0 °C 1009.0 hPa Calm   4.0 km/h 98% 0.0 mm
05:49 0.9 °C 1.0 °C 1009.0 hPa NE 3.2 km/h 4.0 km/h 98% 0.0 mm
05:50 0.9 °C 1.0 °C 1009.0 hPa Calm   4.0 km/h 98% 0.0 mm
05:51 0.9 °C 1.0 °C 1009.0 hPa Calm   3.2 km/h 98% 0.0 mm
05:53 0.8 °C 1.0 °C 1009.0 hPa Calm   3.2 km/h 98% 0.0 mm
05:55 0.8 °C 1.0 °C 1009.0 hPa Calm   3.2 km/h 98% 0.0 mm
05:56 0.8 °C 1.0 °C 1009.0 hPa Calm   3.2 km/h 98% 0.0 mm
05:57 0.7 °C 1.0 °C 1009.0 hPa Calm   3.2 km/h 98% 0.0 mm
05:59 0.7 °C 1.0 °C 1009.0 hPa Calm   3.2 km/h 98% 0.0 mm
06:00 0.7 °C 1.0 °C 1009.0 hPa Calm   3.2 km/h 98% 0.0 mm
06:01 0.7 °C 1.0 °C 1009.0 hPa Calm   3.2 km/h 98% 0.0 mm
06:03 0.7 °C 1.0 °C 1009.0 hPa Calm   3.2 km/h 98% 0.0 mm
06:05 0.7 °C 1.0 °C 1009.0 hPa Calm     98% 0.0 mm
06:06 0.7 °C 1.0 °C 1009.0 hPa Calm     98% 0.0 mm
06:07 0.7 °C 1.0 °C 1009.0 hPa Calm     98% 0.0 mm
06:09 0.6 °C 1.0 °C 1009.0 hPa Calm     98% 0.0 mm
06:10 0.6 °C 1.0 °C 1009.0 hPa Calm     98% 0.0 mm
06:11 0.6 °C 1.0 °C 1010.0 hPa Calm     98% 0.0 mm
06:12 0.6 °C 1.0 °C 1010.0 hPa Calm     98% 0.0 mm
06:14 0.6 °C 1.0 °C 1010.0 hPa Calm     98% 0.0 mm
06:15 0.6 °C 1.0 °C 1010.0 hPa Calm     98% 0.0 mm
06:16 0.6 °C 1.0 °C 1010.0 hPa Calm     98% 0.0 mm
06:17 0.6 °C 1.0 °C 1010.0 hPa Calm     98% 0.0 mm
06:19 0.6 °C 1.0 °C 1010.0 hPa Calm     98% 0.0 mm
06:20 0.6 °C 1.0 °C 1010.0 hPa Calm     98% 0.0 mm
06:21 0.6 °C 1.0 °C 1010.0 hPa Calm     98% 0.0 mm
06:22 0.6 °C 1.0 °C 1010.0 hPa Calm     98% 0.0 mm
06:23 0.6 °C 1.0 °C 1010.0 hPa Calm     98% 0.0 mm
06:24 0.6 °C 1.0 °C 1010.0 hPa NE 3.2 km/h 3.2 km/h 98% 0.0 mm
06:26 0.6 °C 1.0 °C 1010.0 hPa NNE 3.5 km/h 3.5 km/h 98% 0.0 mm
06:27 0.6 °C 1.0 °C 1009.0 hPa Calm   3.5 km/h 98% 0.0 mm
06:28 0.6 °C 1.0 °C 1009.0 hPa Calm   4.0 km/h 98% 0.0 mm
06:29 0.6 °C 1.0 °C 1009.0 hPa Calm   5.8 km/h 98% 0.0 mm
06:30 0.6 °C 1.0 °C 1009.0 hPa North 3.5 km/h 5.8 km/h 98% 0.0 mm
06:31 0.6 °C 1.0 °C 1009.0 hPa Calm   5.8 km/h 98% 0.0 mm
06:32 0.6 °C 1.0 °C 1009.0 hPa Calm   5.8 km/h 98% 0.0 mm
06:33 0.6 °C 1.0 °C 1009.0 hPa Calm   5.8 km/h 98% 0.0 mm
06:35 0.6 °C 1.0 °C 1009.0 hPa Calm   5.8 km/h 98% 0.0 mm
06:36 0.6 °C 1.0 °C 1009.0 hPa Calm   5.8 km/h 98% 0.0 mm
06:38 0.6 °C 1.0 °C 1009.0 hPa Calm   5.8 km/h 98% 0.0 mm
06:39 0.6 °C 1.0 °C 1009.0 hPa NNE 3.5 km/h 5.5 km/h 98% 0.0 mm
06:40 0.7 °C 1.0 °C 1009.0 hPa Calm   4.0 km/h 98% 0.0 mm
06:42 0.7 °C 1.0 °C 1010.0 hPa Calm   4.0 km/h 98% 0.0 mm
06:43 0.7 °C 1.0 °C 1010.0 hPa NNE 4.0 km/h 5.0 km/h 98% 0.0 mm
06:44 0.7 °C 1.0 °C 1010.0 hPa NE 4.0 km/h 5.0 km/h 98% 0.0 mm
06:45 0.7 °C 1.0 °C 1010.0 hPa NNE 4.7 km/h 5.0 km/h 98% 0.0 mm
06:46 0.7 °C 1.0 °C 1010.0 hPa Calm   5.0 km/h 98% 0.0 mm
06:47 0.7 °C 1.0 °C 1010.0 hPa Calm   5.0 km/h 98% 0.0 mm
06:48 0.7 °C 1.0 °C 1010.0 hPa Calm   5.0 km/h 98% 0.0 mm
06:49 0.7 °C 1.0 °C 1010.0 hPa Calm   5.0 km/h 98% 0.0 mm
06:50 0.7 °C 1.0 °C 1010.0 hPa Calm   5.0 km/h 98% 0.0 mm
06:51 0.6 °C 1.0 °C 1010.0 hPa Calm   5.0 km/h 98% 0.0 mm
06:53 0.6 °C 1.0 °C 1010.0 hPa Calm   4.7 km/h 98% 0.0 mm
06:54 0.6 °C 1.0 °C 1010.0 hPa Calm   4.7 km/h 98% 0.0 mm
06:57 0.6 °C 1.0 °C 1009.0 hPa NNE 2.1 km/h 3.5 km/h 98% 0.0 mm
06:58 0.6 °C 1.0 °C 1009.0 hPa Calm   3.5 km/h 98% 0.0 mm
06:59 0.6 °C 1.0 °C 1009.0 hPa Calm   4.0 km/h 98% 0.0 mm
07:00 0.6 °C 1.0 °C 1009.0 hPa NE 5.8 km/h 5.8 km/h 98% 0.0 mm
07:01 0.6 °C 1.0 °C 1009.0 hPa Calm   5.8 km/h 98% 0.0 mm
07:02 0.6 °C 1.0 °C 1009.0 hPa Calm   5.8 km/h 98% 0.0 mm
07:03 0.5 °C 1.0 °C 1009.0 hPa Calm   5.8 km/h 98% 0.0 mm
07:04 0.5 °C 1.0 °C 1009.0 hPa Calm   5.8 km/h 98% 0.0 mm
07:06 0.5 °C 1.0 °C 1009.0 hPa Calm   5.8 km/h 98% 0.0 mm
07:07 0.5 °C 1.0 °C 1009.0 hPa Calm   5.8 km/h 98% 0.0 mm
07:08 0.5 °C 1.0 °C 1009.0 hPa Calm   5.8 km/h 98% 0.0 mm
07:10 0.5 °C 1.0 °C 1009.0 hPa NE 4.7 km/h 5.8 km/h 98% 0.0 mm
07:11 0.5 °C 1.0 °C 1009.0 hPa NNE 2.1 km/h 5.5 km/h 98% 0.0 mm
07:12 0.5 °C 1.0 °C 1009.0 hPa Calm   5.5 km/h 98% 0.0 mm
07:13 0.5 °C 1.0 °C 1009.0 hPa Calm   5.5 km/h 98% 0.0 mm
07:14 0.5 °C 1.0 °C 1009.0 hPa Calm   5.5 km/h 98% 0.0 mm
07:15 0.5 °C 1.0 °C 1009.0 hPa Calm   5.5 km/h 98% 0.0 mm
07:18 0.6 °C 1.0 °C 1009.0 hPa Calm   5.5 km/h 98% 0.0 mm
07:19 0.6 °C 1.0 °C 1009.0 hPa Calm   5.5 km/h 98% 0.0 mm
07:20 0.6 °C 1.0 °C 1009.0 hPa Calm   5.0 km/h 98% 0.0 mm
07:21 0.6 °C 1.0 °C 1009.0 hPa Calm   5.0 km/h 98% 0.0 mm
07:22 0.7 °C 1.0 °C 1009.0 hPa Calm   4.7 km/h 98% 0.0 mm
07:27 0.8 °C 1.0 °C 1009.0 hPa ENE 4.3 km/h 4.3 km/h 98% 0.0 mm
07:29 0.8 °C 1.0 °C 1009.0 hPa Calm   5.5 km/h 98% 0.0 mm
07:30 0.9 °C 1.0 °C 1009.0 hPa Calm   5.5 km/h 98% 0.0 mm
07:32 0.9 °C 1.0 °C 1009.0 hPa Calm   5.8 km/h 98% 0.0 mm
07:33 0.9 °C 1.0 °C 1009.0 hPa NE 6.1 km/h 6.1 km/h 98% 0.0 mm
07:34 0.9 °C 1.0 °C 1009.0 hPa ENE 6.4 km/h 6.4 km/h 98% 0.0 mm
07:35 0.9 °C 1.0 °C 1009.0 hPa NE 6.1 km/h 6.4 km/h 98% 0.0 mm
07:38 1.0 °C 1.0 °C 1009.0 hPa NE 4.7 km/h 6.9 km/h 98% 0.0 mm
07:40 1.0 °C 1.0 °C 1009.0 hPa NE 5.0 km/h 6.9 km/h 98% 0.0 mm
07:41 1.0 °C 1.0 °C 1009.0 hPa NE 5.8 km/h 6.9 km/h 98% 0.0 mm
07:43 1.0 °C 1.0 °C 1009.0 hPa ENE 5.8 km/h 6.9 km/h 98% 0.0 mm
07:44 1.0 °C 1.0 °C 1009.0 hPa NE 6.9 km/h 6.9 km/h 98% 0.0 mm
07:46 1.0 °C 1.0 °C 1009.0 hPa Calm   7.6 km/h 98% 0.0 mm
07:47 1.0 °C 1.0 °C 1009.0 hPa Calm   7.6 km/h 98% 0.0 mm
07:48 1.0 °C 1.0 °C 1009.0 hPa Calm   7.6 km/h 98% 0.0 mm
07:50 1.0 °C 1.0 °C 1009.0 hPa Calm   7.6 km/h 98% 0.0 mm
07:53 1.0 °C 1.0 °C 1009.0 hPa Calm   7.6 km/h 98% 0.0 mm
07:54 1.0 °C 1.0 °C 1009.0 hPa Calm     98% 0.0 mm
07:56 1.0 °C 1.0 °C 1009.0 hPa Calm     98% 0.0 mm
07:58 1.0 °C 1.0 °C 1009.0 hPa Calm     98% 0.0 mm
07:59 1.0 °C 1.0 °C 1009.0 hPa NNE 5.5 km/h 5.5 km/h 98% 0.0 mm
08:00 0.9 °C 1.0 °C 1009.0 hPa NE 6.9 km/h 6.9 km/h 98% 0.0 mm
08:01 0.9 °C 1.0 °C 1009.0 hPa NE 6.9 km/h 6.9 km/h 98% 0.0 mm
08:04 0.9 °C 1.0 °C 1009.0 hPa NNE 6.4 km/h 6.9 km/h 98% 0.0 mm
08:05 0.9 °C 1.0 °C 1009.0 hPa Calm   6.9 km/h 98% 0.0 mm
08:06 0.8 °C 1.0 °C 1009.0 hPa NNE 5.0 km/h 6.9 km/h 98% 0.0 mm
08:08 0.8 °C 1.0 °C 1009.0 hPa NNE 5.0 km/h 6.9 km/h 98% 0.0 mm
08:09 0.8 °C 1.0 °C 1009.0 hPa Calm   6.9 km/h 98% 0.0 mm
08:10 0.8 °C 1.0 °C 1009.0 hPa Calm   6.9 km/h 98% 0.0 mm
08:12 0.8 °C 1.0 °C 1009.0 hPa NNE 3.2 km/h 6.4 km/h 98% 0.0 mm
08:13 0.8 °C 1.0 °C 1009.0 hPa Calm   6.4 km/h 98% 0.0 mm
08:15 0.8 °C 1.0 °C 1009.0 hPa Calm   5.8 km/h 98% 0.0 mm
08:16 0.8 °C 1.0 °C 1009.0 hPa Calm   5.8 km/h 98% 0.0 mm
08:17 0.8 °C 1.0 °C 1009.0 hPa North 4.3 km/h 5.5 km/h 98% 0.0 mm
08:18 0.8 °C 1.0 °C 1009.0 hPa NNE 5.0 km/h 5.8 km/h 98% 0.0 mm
08:19 0.8 °C 1.0 °C 1009.0 hPa NE 6.1 km/h 6.1 km/h 98% 0.0 mm
08:20 0.8 °C 1.0 °C 1009.0 hPa NNE 5.5 km/h 6.1 km/h 98% 0.0 mm
08:22 0.8 °C 1.0 °C 1009.0 hPa Calm   6.1 km/h 98% 0.0 mm
08:25 0.8 °C 1.0 °C 1009.0 hPa Calm   6.1 km/h 98% 0.0 mm
08:26 0.8 °C 1.0 °C 1009.0 hPa Calm   6.1 km/h 98% 0.0 mm
08:27 0.8 °C 1.0 °C 1009.0 hPa Calm   6.1 km/h 98% 0.0 mm
08:30 0.9 °C 1.0 °C 1009.0 hPa Calm   5.5 km/h 98% 0.0 mm
08:31 0.9 °C 1.0 °C 1009.0 hPa Calm   5.0 km/h 98% 0.0 mm
08:32 0.9 °C 1.0 °C 1009.0 hPa ENE 4.3 km/h 5.0 km/h 98% 0.0 mm
08:33 0.9 °C 1.0 °C 1009.0 hPa ENE 3.5 km/h 5.0 km/h 98% 0.0 mm
08:34 0.9 °C 1.0 °C 1009.0 hPa Calm   4.3 km/h 98% 0.0 mm
08:36 0.9 °C 1.0 °C 1009.0 hPa Calm   4.3 km/h 98% 0.0 mm
08:37 0.9 °C 1.0 °C 1009.0 hPa Calm   4.3 km/h 98% 0.0 mm
08:39 1.0 °C 1.0 °C 1009.0 hPa Calm   4.3 km/h 98% 0.0 mm
08:42 1.0 °C 1.0 °C 1009.0 hPa Calm   3.5 km/h 98% 0.0 mm
08:43 1.0 °C 1.0 °C 1009.0 hPa Calm     98% 0.0 mm
08:44 1.0 °C 1.0 °C 1009.0 hPa Calm     98% 0.0 mm
08:45 1.0 °C 1.0 °C 1009.0 hPa Calm     98% 0.0 mm
08:50 1.0 °C 1.0 °C 1009.0 hPa Calm     98% 0.0 mm
08:51 1.0 °C 1.0 °C 1009.0 hPa Calm     98% 0.0 mm
08:54 1.0 °C 1.0 °C 1009.0 hPa ENE 4.3 km/h 4.3 km/h 98% 0.0 mm
08:55 1.0 °C 1.0 °C 1009.0 hPa Calm   4.3 km/h 98% 0.0 mm
08:56 1.0 °C 1.0 °C 1009.0 hPa Calm   4.3 km/h 98% 0.0 mm
08:57 1.0 °C 1.0 °C 1009.0 hPa Calm   4.3 km/h 98% 0.0 mm
08:59 1.0 °C 1.0 °C 1009.0 hPa Calm   4.3 km/h 98% 0.0 mm
09:00 1.0 °C 1.0 °C 1009.0 hPa Calm   4.3 km/h 98% 0.0 mm
09:01 1.0 °C 1.0 °C 1009.0 hPa Calm   4.3 km/h 98% 0.0 mm
09:02 1.0 °C 1.0 °C 1009.0 hPa Calm   4.3 km/h 98% 0.0 mm
09:03 1.0 °C 1.0 °C 1009.0 hPa Calm   4.3 km/h 98% 0.0 mm
09:04 1.0 °C 1.0 °C 1009.0 hPa Calm   4.3 km/h 98% 0.0 mm
09:06 1.0 °C 1.0 °C 1009.0 hPa Calm   4.0 km/h 98% 0.0 mm
09:08 1.0 °C 1.0 °C 1009.0 hPa East 3.2 km/h 3.5 km/h 98% 0.0 mm
09:10 1.0 °C 1.0 °C 1009.0 hPa Calm   3.5 km/h 98% 0.0 mm
09:12 1.1 °C 1.0 °C 1009.0 hPa Calm   3.2 km/h 98% 0.0 mm
09:14 1.1 °C 1.0 °C 1009.0 hPa East 2.1 km/h 3.2 km/h 98% 0.0 mm
09:15 1.1 °C 1.0 °C 1009.0 hPa Calm   3.2 km/h 98% 0.0 mm
09:16 1.1 °C 1.0 °C 1009.0 hPa Calm   3.2 km/h 98% 0.0 mm
09:17 1.1 °C 1.0 °C 1009.0 hPa East 2.1 km/h 3.5 km/h 98% 0.0 mm
09:18 1.2 °C 1.0 °C 1009.0 hPa Calm   3.5 km/h 98% 0.0 mm
09:24 1.3 °C 1.0 °C 1009.0 hPa Calm   3.5 km/h 98% 0.0 mm
09:26 1.3 °C 1.0 °C 1009.0 hPa Calm   3.5 km/h 98% 0.0 mm
09:27 1.3 °C 1.0 °C 1008.0 hPa Calm   3.5 km/h 98% 0.0 mm
09:30 1.3 °C 1.0 °C 1008.0 hPa Calm   3.2 km/h 98% 0.0 mm
09:31 1.3 °C 1.0 °C 1008.0 hPa Calm   3.2 km/h 98% 0.0 mm
09:32 1.3 °C 1.0 °C 1008.0 hPa Calm   3.2 km/h 98% 0.0 mm
09:33 1.3 °C 1.0 °C 1008.0 hPa Calm   3.2 km/h 98% 0.0 mm
09:34 1.3 °C 1.0 °C 1008.0 hPa Calm   3.2 km/h 98% 0.0 mm
09:35 1.3 °C 1.0 °C 1008.0 hPa Calm   3.2 km/h 98% 0.0 mm
09:36 1.3 °C 1.0 °C 1008.0 hPa Calm   3.2 km/h 98% 0.0 mm
09:37 1.3 °C 1.0 °C 1008.0 hPa Calm   3.2 km/h 98% 0.0 mm
09:38 1.3 °C 1.0 °C 1008.0 hPa Calm   3.2 km/h 98% 0.0 mm
09:39 1.4 °C 1.0 °C 1008.0 hPa Calm     98% 0.0 mm
09:40 1.4 °C 1.0 °C 1008.0 hPa Calm     98% 0.0 mm
09:41 1.4 °C 1.0 °C 1009.0 hPa Calm     98% 0.0 mm
09:43 1.4 °C 1.0 °C 1009.0 hPa Calm   2.1 km/h 98% 0.0 mm
09:44 1.4 °C 1.0 °C 1009.0 hPa Calm   2.1 km/h 98% 0.0 mm
09:45 1.4 °C 1.0 °C 1009.0 hPa Calm   2.1 km/h 98% 0.0 mm
09:46 1.4 °C 1.0 °C 1009.0 hPa Calm   2.1 km/h 98% 0.0 mm
09:47 1.4 °C 1.0 °C 1009.0 hPa Calm   4.0 km/h 98% 0.0 mm
09:48 1.5 °C 2.0 °C 1009.0 hPa Calm   4.0 km/h 98% 0.0 mm
09:49 1.5 °C 2.0 °C 1009.0 hPa Calm   4.0 km/h 98% 0.0 mm
09:51 1.5 °C 2.0 °C 1009.0 hPa Calm   4.0 km/h 98% 0.0 mm
09:53 1.5 °C 2.0 °C 1009.0 hPa Calm   4.0 km/h 98% 0.0 mm
09:54 1.5 °C 2.0 °C 1009.0 hPa Calm   4.0 km/h 98% 0.0 mm
09:56 1.6 °C 2.0 °C 1008.0 hPa Calm   4.0 km/h 98% 0.0 mm
09:57 1.6 °C 2.0 °C 1008.0 hPa Calm     98% 0.0 mm
09:58 1.6 °C 2.0 °C 1008.0 hPa Calm     98% 0.0 mm
09:59 1.6 °C 2.0 °C 1008.0 hPa Calm     98% 0.0 mm
10:00 1.6 °C 2.0 °C 1008.0 hPa Calm     98% 0.0 mm
10:02 1.6 °C 2.0 °C 1008.0 hPa Calm     98% 0.0 mm
10:03 1.6 °C 2.0 °C 1008.0 hPa Calm     98% 0.0 mm
10:04 1.7 °C 2.0 °C 1008.0 hPa Calm     98% 0.0 mm
10:05 1.7 °C 2.0 °C 1008.0 hPa Calm     98% 0.0 mm
10:07 1.7 °C 2.0 °C 1008.0 hPa Calm     98% 0.0 mm
10:09 1.8 °C 2.0 °C 1008.0 hPa Calm     98% 0.0 mm
10:10 1.8 °C 2.0 °C 1008.0 hPa Calm     98% 0.0 mm
10:11 1.9 °C 2.0 °C 1008.0 hPa Calm     98% 0.0 mm
10:12 1.9 °C 2.0 °C 1008.0 hPa Calm     98% 0.0 mm
10:15 1.9 °C 2.0 °C 1008.0 hPa Calm     98% 0.0 mm
10:17 2.0 °C 2.0 °C 1008.0 hPa Calm     98% 0.0 mm
10:20 2.0 °C 2.0 °C 1008.0 hPa Calm     98% 0.0 mm
10:21 2.0 °C 2.0 °C 1008.0 hPa Calm     98% 0.0 mm
10:23 2.1 °C 2.0 °C 1008.0 hPa Calm     98% 0.0 mm
10:25 2.1 °C 2.0 °C 1008.0 hPa Calm     98% 0.0 mm
10:26 2.2 °C 2.0 °C 1008.0 hPa Calm     98% 0.0 mm
10:27 2.2 °C 2.0 °C 1008.0 hPa Calm     98% 0.0 mm
10:28 2.2 °C 2.0 °C 1008.0 hPa East 2.1 km/h 2.1 km/h 98% 0.0 mm
10:29 2.2 °C 2.0 °C 1008.0 hPa Calm   2.1 km/h 98% 0.0 mm
10:33 2.4 °C 3.0 °C 1008.0 hPa Calm   2.6 km/h 98% 0.0 mm
10:34 2.4 °C 3.0 °C 1008.0 hPa Calm   2.6 km/h 98% 0.0 mm
10:36 2.4 °C 3.0 °C 1008.0 hPa NE 2.6 km/h 2.6 km/h 98% 0.0 mm
10:37 2.5 °C 3.0 °C 1008.0 hPa Calm   2.6 km/h 98% 0.0 mm
10:38 2.5 °C 3.0 °C 1008.0 hPa Calm   2.6 km/h 98% 0.0 mm
10:39 2.5 °C 3.0 °C 1008.0 hPa Calm   2.6 km/h 98% 0.0 mm
10:40 2.6 °C 3.0 °C 1008.0 hPa Calm   2.6 km/h 98% 0.0 mm
10:41 2.6 °C 3.0 °C 1008.0 hPa Calm   2.6 km/h 98% 0.0 mm
10:42 2.6 °C 3.0 °C 1008.0 hPa Calm   2.6 km/h 98% 0.0 mm
10:43 2.6 °C 3.0 °C 1008.0 hPa ESE 2.6 km/h 3.5 km/h 98% 0.0 mm
10:44 2.6 °C 3.0 °C 1008.0 hPa Calm   3.5 km/h 98% 0.0 mm
10:45 2.7 °C 3.0 °C 1008.0 hPa ENE 2.1 km/h 3.5 km/h 98% 0.0 mm
10:46 2.7 °C 3.0 °C 1008.0 hPa Calm   3.5 km/h 98% 0.0 mm
10:48 2.7 °C 3.0 °C 1008.0 hPa Calm   4.3 km/h 98% 0.0 mm
10:54 2.9 °C 3.0 °C 1008.0 hPa Calm   4.3 km/h 98% 0.0 mm
10:56 2.9 °C 3.0 °C 1008.0 hPa Calm   4.0 km/h 98% 0.0 mm
10:58 3.0 °C 3.0 °C 1008.0 hPa East 2.6 km/h 4.0 km/h 98% 0.0 mm
10:59 3.0 °C 3.0 °C 1008.0 hPa East 1.4 km/h 2.6 km/h 98% 0.0 mm
11:00 3.0 °C 3.0 °C 1008.0 hPa Calm   2.6 km/h 98% 0.0 mm
11:01 3.0 °C 3.0 °C 1008.0 hPa Calm   3.5 km/h 98% 0.0 mm
11:03 3.0 °C 3.0 °C 1008.0 hPa Calm   3.5 km/h 98% 0.0 mm
11:05 3.1 °C 3.0 °C 1008.0 hPa Calm   3.5 km/h 98% 0.0 mm
11:06 3.1 °C 3.0 °C 1008.0 hPa Calm   3.5 km/h 98% 0.0 mm
11:07 3.1 °C 3.0 °C 1008.0 hPa Calm   3.5 km/h 98% 0.0 mm
11:08 3.1 °C 3.0 °C 1008.0 hPa ESE 2.6 km/h 3.5 km/h 98% 0.0 mm
11:09 3.1 °C 3.0 °C 1008.0 hPa Calm   3.5 km/h 98% 0.0 mm
11:11 3.2 °C 3.0 °C 1008.0 hPa Calm   3.5 km/h 98% 0.0 mm
11:13 3.3 °C 3.0 °C 1008.0 hPa Calm   3.2 km/h 98% 0.0 mm
11:15 3.3 °C 3.0 °C 1008.0 hPa Calm   3.2 km/h 98% 0.0 mm
11:17 3.3 °C 3.0 °C 1008.0 hPa Calm   3.2 km/h 98% 0.0 mm
11:19 3.4 °C 3.0 °C 1008.0 hPa Calm     98% 0.0 mm
11:21 3.5 °C 4.0 °C 1008.0 hPa Calm     98% 0.0 mm
11:22 3.5 °C 4.0 °C 1008.0 hPa Calm     98% 0.0 mm
11:23 3.5 °C 4.0 °C 1008.0 hPa Calm     98% 0.0 mm
11:26 3.6 °C 4.0 °C 1008.0 hPa Calm     98% 0.0 mm
11:27 3.6 °C 4.0 °C 1008.0 hPa Calm     98% 0.0 mm
11:28 3.6 °C 4.0 °C 1008.0 hPa Calm     98% 0.0 mm
11:30 3.7 °C 4.0 °C 1008.0 hPa Calm     98% 0.0 mm
11:32 3.7 °C 4.0 °C 1008.0 hPa Calm     98% 0.0 mm
11:33 3.7 °C 4.0 °C 1008.0 hPa Calm     98% 0.0 mm
11:37 3.8 °C 4.0 °C 1008.0 hPa Calm     98% 0.0 mm
11:38 3.8 °C 4.0 °C 1008.0 hPa Calm     98% 0.0 mm
11:39 3.8 °C 4.0 °C 1008.0 hPa Calm     98% 0.0 mm
11:41 3.9 °C 4.0 °C 1008.0 hPa Calm     98% 0.0 mm
11:42 3.9 °C 4.0 °C 1008.0 hPa Calm     98% 0.0 mm
11:43 3.9 °C 4.0 °C 1008.0 hPa Calm     98% 0.0 mm
11:44 3.9 °C 4.0 °C 1008.0 hPa Calm     98% 0.0 mm
11:45 3.9 °C 4.0 °C 1008.0 hPa Calm     98% 0.0 mm
11:46 4.0 °C 4.0 °C 1008.0 hPa Calm     98% 0.0 mm
11:47 4.0 °C 4.0 °C 1008.0 hPa Calm     98% 0.0 mm
11:48 4.0 °C 4.0 °C 1008.0 hPa Calm     98% 0.0 mm
11:49 4.0 °C 4.0 °C 1008.0 hPa Calm     98% 0.0 mm
11:50 4.0 °C 4.0 °C 1008.0 hPa Calm     98% 0.0 mm
11:52 4.1 °C 4.0 °C 1008.0 hPa Calm     98% 0.0 mm
11:53 4.1 °C 4.0 °C 1008.0 hPa SSE 4.0 km/h 6.4 km/h 98% 0.0 mm
11:54 4.1 °C 4.0 °C 1008.0 hPa Calm   6.4 km/h 98% 0.0 mm
11:55 4.1 °C 4.0 °C 1008.0 hPa Calm   6.4 km/h 98% 0.0 mm
11:56 4.1 °C 4.0 °C 1008.0 hPa Calm   6.4 km/h 98% 0.0 mm
11:58 4.1 °C 4.0 °C 1008.0 hPa South 9.7 km/h 9.7 km/h 98% 0.0 mm
11:59 4.1 °C 4.0 °C 1008.0 hPa Calm   9.7 km/h 98% 0.0 mm
12:00 4.2 °C 4.0 °C 1008.0 hPa South 9.3 km/h 9.7 km/h 98% 0.0 mm
12:04 4.2 °C 4.0 °C 1008.0 hPa SSE 9.3 km/h 10.5 km/h 98% 0.0 mm
12:05 4.3 °C 4.0 °C 1008.0 hPa SSW 5.8 km/h 10.5 km/h 98% 0.0 mm
12:06 4.3 °C 4.0 °C 1008.0 hPa South 1.8 km/h 10.5 km/h 98% 0.0 mm
12:09 4.3 °C 4.0 °C 1008.0 hPa SSE 1.8 km/h 10.5 km/h 98% 0.0 mm
12:10 4.3 °C 4.0 °C 1008.0 hPa SSE 6.1 km/h 10.5 km/h 98% 0.0 mm
12:12 4.3 °C 4.0 °C 1008.0 hPa SSE 9.3 km/h 12.6 km/h 98% 0.0 mm
12:14 4.3 °C 4.0 °C 1008.0 hPa Calm   12.6 km/h 98% 0.0 mm
12:15 4.3 °C 4.0 °C 1008.0 hPa SSE 13.0 km/h 13.0 km/h 98% 0.0 mm
12:16 4.4 °C 4.0 °C 1008.0 hPa South 9.0 km/h 13.0 km/h 98% 0.0 mm
12:17 4.4 °C 4.0 °C 1008.0 hPa Calm   13.0 km/h 98% 0.0 mm
12:18 4.4 °C 4.0 °C 1008.0 hPa Calm   13.0 km/h 98% 0.0 mm
12:19 4.4 °C 4.0 °C 1008.0 hPa Calm   13.0 km/h 98% 0.0 mm
12:22 4.4 °C 4.0 °C 1008.0 hPa Calm   13.0 km/h 98% 0.0 mm
12:23 4.4 °C 4.0 °C 1008.0 hPa South 4.7 km/h 13.0 km/h 98% 0.0 mm
12:26 4.4 °C 4.0 °C 1007.0 hPa SSE 6.1 km/h 13.0 km/h 98% 0.0 mm
12:28 4.4 °C 4.0 °C 1007.0 hPa SSE 3.2 km/h 13.0 km/h 98% 0.0 mm
12:29 4.4 °C 4.0 °C 1007.0 hPa SSE 6.4 km/h 13.0 km/h 98% 0.0 mm
12:30 4.4 °C 4.0 °C 1007.0 hPa Calm   13.0 km/h 98% 0.0 mm
12:31 4.4 °C 4.0 °C 1007.0 hPa South 8.7 km/h 13.0 km/h 98% 0.0 mm
12:32 4.5 °C 5.0 °C 1007.0 hPa SSW 4.7 km/h 13.0 km/h 98% 0.0 mm
12:33 4.5 °C 5.0 °C 1007.0 hPa SSE 4.3 km/h 13.0 km/h 98% 0.0 mm
12:34 4.5 °C 5.0 °C 1007.0 hPa SSE 9.0 km/h 13.0 km/h 98% 0.0 mm
12:35 4.5 °C 5.0 °C 1007.0 hPa SSE 10.8 km/h 11.1 km/h 98% 0.0 mm
12:36 4.5 °C 5.0 °C 1007.0 hPa South 2.6 km/h 11.9 km/h 98% 0.0 mm
12:37 4.5 °C 5.0 °C 1007.0 hPa South 7.9 km/h 11.9 km/h 98% 0.0 mm
12:38 4.6 °C 5.0 °C 1007.0 hPa Calm   11.9 km/h 98% 0.0 mm
12:41 4.6 °C 5.0 °C 1007.0 hPa Calm   11.9 km/h 98% 0.0 mm
12:44 4.6 °C 5.0 °C 1007.0 hPa Calm   11.9 km/h 98% 0.0 mm
12:46 4.7 °C 5.0 °C 1007.0 hPa South 7.6 km/h 9.3 km/h 98% 0.0 mm
12:47 4.7 °C 5.0 °C 1007.0 hPa SSW 6.4 km/h 9.3 km/h 98% 0.0 mm
12:49 4.7 °C 5.0 °C 1007.0 hPa South 5.5 km/h 9.3 km/h 98% 0.0 mm
12:50 4.7 °C 5.0 °C 1007.0 hPa South 5.0 km/h 9.3 km/h 98% 0.0 mm
12:51 4.7 °C 5.0 °C 1007.0 hPa South 6.9 km/h 9.3 km/h 98% 0.0 mm
12:52 4.7 °C 5.0 °C 1007.0 hPa South 4.3 km/h 10.1 km/h 98% 0.0 mm
12:54 4.8 °C 5.0 °C 1007.0 hPa Calm   10.1 km/h 98% 0.0 mm
12:55 4.8 °C 5.0 °C 1007.0 hPa SSE 4.0 km/h 10.1 km/h 98% 0.0 mm
12:57 4.8 °C 5.0 °C 1007.0 hPa SSE 4.7 km/h 10.1 km/h 98% 0.0 mm
12:58 4.8 °C 5.0 °C 1007.0 hPa South 6.9 km/h 10.1 km/h 98% 0.0 mm
12:59 4.8 °C 5.0 °C 1007.0 hPa South 9.3 km/h 10.1 km/h 98% 0.0 mm
13:00 4.8 °C 5.0 °C 1007.0 hPa Calm   10.1 km/h 98% 0.0 mm
13:01 4.8 °C 5.0 °C 1007.0 hPa Calm   10.1 km/h 98% 0.0 mm
13:03 4.8 °C 5.0 °C 1007.0 hPa South 6.1 km/h 10.1 km/h 98% 0.0 mm
13:04 4.8 °C 5.0 °C 1007.0 hPa SSE 9.0 km/h 11.6 km/h 98% 0.0 mm
13:05 4.8 °C 5.0 °C 1007.0 hPa Calm   11.6 km/h 98% 0.0 mm
13:06 4.8 °C 5.0 °C 1007.0 hPa South 12.2 km/h 12.2 km/h 98% 0.0 mm
13:07 4.8 °C 5.0 °C 1007.0 hPa South 5.8 km/h 12.2 km/h 98% 0.0 mm
13:09 4.8 °C 5.0 °C 1007.0 hPa South 6.1 km/h 12.2 km/h 98% 0.0 mm
13:10 4.8 °C 5.0 °C 1007.0 hPa South 12.2 km/h 12.2 km/h 98% 0.0 mm
13:11 4.8 °C 5.0 °C 1007.0 hPa SSW 10.5 km/h 12.2 km/h 98% 0.0 mm
13:12 4.8 °C 5.0 °C 1007.0 hPa SSW 9.0 km/h 12.2 km/h 98% 0.0 mm
13:14 4.8 °C 5.0 °C 1007.0 hPa South 6.1 km/h 12.2 km/h 98% 0.0 mm
13:15 4.8 °C 5.0 °C 1007.0 hPa SSW 5.8 km/h 12.2 km/h 98% 0.0 mm
13:16 4.8 °C 5.0 °C 1007.0 hPa SSW 6.4 km/h 12.2 km/h 98% 0.0 mm
13:18 4.8 °C 5.0 °C 1007.0 hPa SSW 6.4 km/h 12.2 km/h 98% 0.0 mm
13:19 4.8 °C 5.0 °C 1007.0 hPa SSW 9.3 km/h 12.2 km/h 98% 0.0 mm
13:22 4.9 °C 5.0 °C 1007.0 hPa SSW 6.1 km/h 10.5 km/h 98% 0.0 mm
13:23 4.9 °C 5.0 °C 1007.0 hPa SSW 7.9 km/h 11.1 km/h 98% 0.0 mm
13:24 4.9 °C 5.0 °C 1007.0 hPa SSW 9.0 km/h 11.1 km/h 98% 0.0 mm
13:25 4.9 °C 5.0 °C 1007.0 hPa SSW 4.7 km/h 11.1 km/h 98% 0.0 mm
13:26 4.9 °C 5.0 °C 1007.0 hPa South 6.9 km/h 12.6 km/h 98% 0.0 mm
13:28 4.9 °C 5.0 °C 1007.0 hPa SSE 5.8 km/h 12.6 km/h 98% 0.0 mm
13:29 4.9 °C 5.0 °C 1007.0 hPa South 8.7 km/h 12.6 km/h 98% 0.0 mm
13:30 4.9 °C 5.0 °C 1007.0 hPa South 7.9 km/h 12.6 km/h 98% 0.0 mm
13:31 4.9 °C 5.0 °C 1007.0 hPa South 9.7 km/h 12.6 km/h 98% 0.0 mm
13:32 4.9 °C 5.0 °C 1007.0 hPa SSW 10.5 km/h 12.6 km/h 98% 0.0 mm
13:33 5.0 °C 5.0 °C 1007.0 hPa South 9.7 km/h 12.6 km/h 98% 0.0 mm
13:38 5.0 °C 5.0 °C 1007.0 hPa SSW 6.9 km/h 11.9 km/h 98% 0.0 mm
13:39 5.0 °C 5.0 °C 1007.0 hPa SSE 4.3 km/h 10.8 km/h 98% 0.0 mm
13:40 5.0 °C 5.0 °C 1007.0 hPa South 4.3 km/h 10.8 km/h 98% 0.0 mm
13:41 5.0 °C 5.0 °C 1007.0 hPa South 6.4 km/h 10.8 km/h 98% 0.0 mm
13:43 5.0 °C 5.0 °C 1007.0 hPa South 6.1 km/h 10.1 km/h 98% 0.0 mm
13:46 5.1 °C 5.0 °C 1007.0 hPa South 2.6 km/h 10.1 km/h 98% 0.0 mm
13:47 5.1 °C 5.0 °C 1007.0 hPa South 4.7 km/h 9.0 km/h 98% 0.0 mm
13:48 5.1 °C 5.0 °C 1007.0 hPa SSE 5.8 km/h 9.0 km/h 98% 0.0 mm
13:51 5.1 °C 5.0 °C 1007.0 hPa SSW 4.7 km/h 8.7 km/h 98% 0.0 mm
13:53 5.2 °C 5.0 °C 1007.0 hPa SSE 5.0 km/h 8.7 km/h 98% 0.0 mm
13:54 5.2 °C 5.0 °C 1007.0 hPa South 6.1 km/h 8.7 km/h 98% 0.0 mm
13:55 5.2 °C 5.0 °C 1007.0 hPa Calm   8.7 km/h 98% 0.0 mm
13:57 5.2 °C 5.0 °C 1007.0 hPa South 6.1 km/h 7.9 km/h 98% 0.0 mm
13:58 5.2 °C 5.0 °C 1007.0 hPa Calm   7.9 km/h 98% 0.0 mm
14:00 5.3 °C 6.0 °C 1007.0 hPa Calm   6.1 km/h 98% 0.0 mm
14:01 5.3 °C 6.0 °C 1007.0 hPa South 2.6 km/h 6.1 km/h 98% 0.0 mm
14:03 5.3 °C 6.0 °C 1007.0 hPa SSW 5.8 km/h 9.0 km/h 98% 0.0 mm
14:05 5.3 °C 6.0 °C 1007.0 hPa SSE 8.7 km/h 13.0 km/h 98% 0.0 mm
14:06 5.3 °C 6.0 °C 1007.0 hPa South 7.9 km/h 13.0 km/h 98% 0.0 mm
14:08 5.3 °C 6.0 °C 1007.0 hPa Calm   13.0 km/h 98% 0.0 mm
14:09 5.3 °C 6.0 °C 1007.0 hPa Calm   13.0 km/h 98% 0.0 mm
14:10 5.3 °C 6.0 °C 1007.0 hPa SSW 5.5 km/h 13.0 km/h 98% 0.0 mm
14:11 5.3 °C 6.0 °C 1007.0 hPa SSW 5.5 km/h 13.0 km/h 98% 0.0 mm
14:12 5.3 °C 6.0 °C 1007.0 hPa SSW 7.9 km/h 13.0 km/h 98% 0.0 mm
14:14 5.3 °C 6.0 °C 1007.0 hPa SSW 6.4 km/h 11.9 km/h 98% 0.0 mm
14:15 5.3 °C 6.0 °C 1007.0 hPa South 5.5 km/h 10.5 km/h 98% 0.0 mm
14:16 5.3 °C 6.0 °C 1007.0 hPa South 3.2 km/h 10.5 km/h 98% 0.0 mm
14:17 5.4 °C 6.0 °C 1007.0 hPa South 3.2 km/h 10.5 km/h 98% 0.0 mm
14:18 5.4 °C 6.0 °C 1007.0 hPa SSW 4.7 km/h 10.5 km/h 98% 0.0 mm
14:20 5.4 °C 6.0 °C 1007.0 hPa SW 3.5 km/h 10.5 km/h 98% 0.0 mm
14:22 5.4 °C 6.0 °C 1007.0 hPa SSW 6.4 km/h 10.5 km/h 98% 0.0 mm
14:24 5.5 °C 6.0 °C 1007.0 hPa South 6.4 km/h 9.3 km/h 98% 0.0 mm
14:25 5.5 °C 6.0 °C 1006.0 hPa SSW 6.1 km/h 10.1 km/h 98% 0.0 mm
14:26 5.5 °C 6.0 °C 1006.0 hPa SSW 7.6 km/h 10.1 km/h 98% 0.0 mm
14:27 5.6 °C 6.0 °C 1006.0 hPa SSW 4.3 km/h 10.1 km/h 98% 0.0 mm
14:30 5.6 °C 6.0 °C 1006.0 hPa South 10.1 km/h 10.1 km/h 98% 0.0 mm
14:31 5.6 °C 6.0 °C 1006.0 hPa SSW 5.0 km/h 10.1 km/h 98% 0.0 mm
14:32 5.6 °C 6.0 °C 1006.0 hPa SSW 6.9 km/h 10.1 km/h 98% 0.0 mm
14:33 5.6 °C 6.0 °C 1006.0 hPa South 9.3 km/h 10.1 km/h 98% 0.0 mm
14:34 5.6 °C 6.0 °C 1006.0 hPa SSW 6.1 km/h 10.1 km/h 98% 0.0 mm
14:35 5.6 °C 6.0 °C 1006.0 hPa South 9.3 km/h 10.1 km/h 98% 0.0 mm
14:36 5.6 °C 6.0 °C 1006.0 hPa South 9.3 km/h 10.1 km/h 98% 0.0 mm
14:37 5.6 °C 6.0 °C 1006.0 hPa South 9.7 km/h 12.6 km/h 98% 0.0 mm
14:40 5.6 °C 6.0 °C 1006.0 hPa South 8.7 km/h 14.3 km/h 98% 0.0 mm
14:42 5.6 °C 6.0 °C 1006.0 hPa South 10.5 km/h 16.6 km/h 98% 0.0 mm
14:44 5.6 °C 6.0 °C 1006.0 hPa SSE 6.1 km/h 16.6 km/h 98% 0.0 mm
14:45 5.6 °C 6.0 °C 1006.0 hPa South 6.4 km/h 16.6 km/h 98% 0.0 mm
14:46 5.6 °C 6.0 °C 1006.0 hPa South 5.5 km/h 16.6 km/h 98% 0.0 mm
14:48 5.6 °C 6.0 °C 1006.0 hPa SSE 6.9 km/h 16.6 km/h 98% 0.0 mm
14:50 5.6 °C 6.0 °C 1006.0 hPa SSE 5.8 km/h 16.6 km/h 98% 0.0 mm
14:52 5.6 °C 6.0 °C 1006.0 hPa SSE 5.0 km/h 11.9 km/h 98% 0.0 mm
14:54 5.6 °C 6.0 °C 1006.0 hPa SSE 1.8 km/h 11.9 km/h 98% 0.0 mm
14:56 5.6 °C 6.0 °C 1006.0 hPa South 1.8 km/h 10.5 km/h 98% 0.0 mm
14:57 5.6 °C 6.0 °C 1006.0 hPa South 5.8 km/h 10.5 km/h 98% 0.0 mm
14:59 5.6 °C 6.0 °C 1006.0 hPa Calm   10.5 km/h 98% 0.0 mm
15:01 5.6 °C 6.0 °C 1006.0 hPa South 9.7 km/h 10.5 km/h 98% 0.0 mm
15:03 5.6 °C 6.0 °C 1006.0 hPa Calm   10.5 km/h 98% 0.0 mm
15:04 5.6 °C 6.0 °C 1006.0 hPa South 6.4 km/h 10.5 km/h 98% 0.0 mm
15:05 5.7 °C 6.0 °C 1006.0 hPa South 13.0 km/h 13.0 km/h 98% 0.0 mm
15:07 5.7 °C 6.0 °C 1006.0 hPa South 6.4 km/h 15.8 km/h 98% 0.0 mm
15:09 5.7 °C 6.0 °C 1006.0 hPa SSW 9.3 km/h 15.8 km/h 98% 0.0 mm
15:10 5.7 °C 6.0 °C 1006.0 hPa SSE 3.2 km/h 15.8 km/h 98% 0.0 mm
15:11 5.7 °C 6.0 °C 1006.0 hPa SSW 9.3 km/h 15.8 km/h 98% 0.0 mm
15:12 5.7 °C 6.0 °C 1006.0 hPa SSW 5.5 km/h 15.8 km/h 98% 0.0 mm
15:13 5.7 °C 6.0 °C 1006.0 hPa South 6.1 km/h 15.8 km/h 98% 0.0 mm
15:14 5.7 °C 6.0 °C 1006.0 hPa South 4.0 km/h 15.8 km/h 98% 0.0 mm
15:15 5.7 °C 6.0 °C 1006.0 hPa South 11.6 km/h 15.8 km/h 98% 0.0 mm
15:16 5.7 °C 6.0 °C 1006.0 hPa South 11.6 km/h 15.8 km/h 98% 0.0 mm
15:17 5.7 °C 6.0 °C 1006.0 hPa South 6.9 km/h 13.7 km/h 98% 0.0 mm
15:18 5.7 °C 6.0 °C 1006.0 hPa SSW 9.0 km/h 13.7 km/h 98% 0.0 mm
15:19 5.7 °C 6.0 °C 1006.0 hPa SSW 10.5 km/h 13.7 km/h 98% 0.0 mm
15:20 5.7 °C 6.0 °C 1006.0 hPa South 5.8 km/h 13.7 km/h 98% 0.0 mm
15:22 5.7 °C 6.0 °C 1006.0 hPa South 14.3 km/h 14.3 km/h 98% 0.0 mm
15:23 5.7 °C 6.0 °C 1006.0 hPa SSW 10.5 km/h 14.3 km/h 98% 0.0 mm
15:24 5.7 °C 6.0 °C 1006.0 hPa SSW 5.5 km/h 14.3 km/h 98% 0.0 mm
15:25 5.7 °C 6.0 °C 1006.0 hPa SSW 10.1 km/h 14.3 km/h 98% 0.0 mm
15:26 5.7 °C 6.0 °C 1006.0 hPa SSW 3.2 km/h 14.3 km/h 98% 0.0 mm
15:27 5.7 °C 6.0 °C 1006.0 hPa SSW 4.7 km/h 14.3 km/h 98% 0.0 mm
15:30 5.8 °C 6.0 °C 1006.0 hPa SSW 2.1 km/h 14.3 km/h 98% 0.0 mm
15:32 5.8 °C 6.0 °C 1006.0 hPa WSW 9.0 km/h 14.3 km/h 98% 0.0 mm
15:33 5.8 °C 6.0 °C 1006.0 hPa SSW 8.7 km/h 13.0 km/h 98% 0.0 mm
15:34 5.8 °C 6.0 °C 1006.0 hPa SW 9.0 km/h 13.0 km/h 98% 0.0 mm
15:36 5.8 °C 6.0 °C 1006.0 hPa South 13.7 km/h 14.0 km/h 98% 0.0 mm
15:38 5.8 °C 6.0 °C 1006.0 hPa SSW 6.4 km/h 17.2 km/h 98% 0.0 mm
15:39 5.8 °C 6.0 °C 1006.0 hPa SSW 8.7 km/h 17.2 km/h 98% 0.0 mm
15:43 5.8 °C 6.0 °C 1007.0 hPa SSW 7.2 km/h 17.2 km/h 98% 0.0 mm
15:44 5.8 °C 6.0 °C 1007.0 hPa SW 6.1 km/h 17.2 km/h 98% 0.0 mm
15:46 5.8 °C 6.0 °C 1007.0 hPa SW 11.9 km/h 17.2 km/h 98% 0.0 mm
15:47 5.8 °C 6.0 °C 1007.0 hPa SSW 9.7 km/h 16.6 km/h 98% 0.0 mm
15:48 5.8 °C 6.0 °C 1007.0 hPa SSW 10.1 km/h 16.6 km/h 98% 0.0 mm
15:49 5.8 °C 6.0 °C 1007.0 hPa SSW 13.7 km/h 16.6 km/h 98% 0.0 mm
15:50 5.8 °C 6.0 °C 1007.0 hPa SW 9.3 km/h 16.6 km/h 98% 0.0 mm
15:51 5.8 °C 6.0 °C 1007.0 hPa SSW 10.1 km/h 16.6 km/h 98% 0.0 mm
15:55 5.8 °C 6.0 °C 1007.0 hPa SSW 10.1 km/h 16.6 km/h 98% 0.0 mm
15:57 5.8 °C 6.0 °C 1006.0 hPa SW 9.3 km/h 14.0 km/h 98% 0.0 mm
15:58 5.8 °C 6.0 °C 1006.0 hPa SSW 11.1 km/h 14.0 km/h 98% 0.0 mm
15:59 5.8 °C 6.0 °C 1006.0 hPa WSW 9.7 km/h 14.0 km/h 98% 0.0 mm
16:04 5.8 °C 6.0 °C 1006.0 hPa SSW 9.7 km/h 17.2 km/h 98% 0.0 mm
16:06 5.8 °C 6.0 °C 1006.0 hPa SSW 11.6 km/h 17.2 km/h 98% 0.0 mm
16:08 5.8 °C 6.0 °C 1006.0 hPa SSW 9.0 km/h 17.2 km/h 98% 0.0 mm
16:09 5.8 °C 6.0 °C 1006.0 hPa SSW 16.6 km/h 17.2 km/h 98% 0.0 mm
16:10 5.8 °C 6.0 °C 1006.0 hPa SSW 9.7 km/h 17.2 km/h 98% 0.0 mm
16:11 5.8 °C 6.0 °C 1007.0 hPa SW 7.9 km/h 17.2 km/h 98% 0.0 mm
16:12 5.8 °C 6.0 °C 1007.0 hPa SSW 9.7 km/h 16.6 km/h 98% 0.0 mm
16:13 5.8 °C 6.0 °C 1007.0 hPa SW 6.1 km/h 16.6 km/h 98% 0.0 mm
16:14 5.8 °C 6.0 °C 1007.0 hPa SSW 16.3 km/h 16.6 km/h 98% 0.0 mm
16:15 5.8 °C 6.0 °C 1007.0 hPa SSW 10.5 km/h 16.6 km/h 98% 0.0 mm
16:16 5.8 °C 6.0 °C 1007.0 hPa SW 10.5 km/h 16.6 km/h 98% 0.0 mm
16:17 5.8 °C 6.0 °C 1007.0 hPa SW 5.0 km/h 16.6 km/h 98% 0.0 mm
16:20 5.8 °C 6.0 °C 1007.0 hPa SSW 8.7 km/h 16.3 km/h 98% 0.0 mm
16:25 5.8 °C 6.0 °C 1007.0 hPa SSW 8.7 km/h 15.4 km/h 98% 0.0 mm
16:26 5.8 °C 6.0 °C 1007.0 hPa WSW 7.9 km/h 15.4 km/h 98% 0.0 mm
16:27 5.8 °C 6.0 °C 1007.0 hPa SW 7.6 km/h 15.4 km/h 98% 0.0 mm
16:28 5.8 °C 6.0 °C 1007.0 hPa SW 10.5 km/h 15.4 km/h 98% 0.0 mm
16:29 5.8 °C 6.0 °C 1007.0 hPa SW 9.0 km/h 15.4 km/h 98% 0.0 mm
16:30 5.8 °C 6.0 °C 1007.0 hPa SSW 9.0 km/h 13.0 km/h 98% 0.0 mm
16:32 5.7 °C 6.0 °C 1007.0 hPa SSW 8.7 km/h 12.6 km/h 98% 0.0 mm
16:33 5.7 °C 6.0 °C 1007.0 hPa SSW 7.9 km/h 12.6 km/h 98% 0.0 mm
16:34 5.7 °C 6.0 °C 1007.0 hPa SW 11.6 km/h 12.6 km/h 98% 0.0 mm
16:35 5.7 °C 6.0 °C 1007.0 hPa SW 11.1 km/h 12.6 km/h 98% 0.0 mm
16:36 5.7 °C 6.0 °C 1007.0 hPa SW 9.7 km/h 12.6 km/h 98% 0.0 mm
16:37 5.7 °C 6.0 °C 1007.0 hPa SSW 10.1 km/h 14.0 km/h 98% 0.0 mm
16:39 5.7 °C 6.0 °C 1007.0 hPa SSW 6.4 km/h 14.0 km/h 98% 0.0 mm
16:40 5.7 °C 6.0 °C 1007.0 hPa SSW 6.4 km/h 14.0 km/h 98% 0.0 mm
16:41 5.7 °C 6.0 °C 1007.0 hPa SSW 9.0 km/h 14.0 km/h 98% 0.0 mm
16:42 5.7 °C 6.0 °C 1007.0 hPa SW 6.4 km/h 14.0 km/h 98% 0.0 mm
16:43 5.7 °C 6.0 °C 1007.0 hPa WSW 6.9 km/h 14.0 km/h 98% 0.0 mm
16:44 5.7 °C 6.0 °C 1007.0 hPa Calm   14.0 km/h 98% 0.0 mm
16:45 5.7 °C 6.0 °C 1007.0 hPa WSW 7.2 km/h 14.0 km/h 98% 0.0 mm
16:46 5.7 °C 6.0 °C 1007.0 hPa SSW 7.9 km/h 14.0 km/h 98% 0.0 mm
16:48 5.7 °C 6.0 °C 1007.0 hPa SW 8.7 km/h 10.1 km/h 98% 0.0 mm
16:49 5.7 °C 6.0 °C 1007.0 hPa South 7.9 km/h 10.1 km/h 98% 0.0 mm
16:50 5.7 °C 6.0 °C 1007.0 hPa SW 6.4 km/h 10.1 km/h 98% 0.0 mm
16:51 5.7 °C 6.0 °C 1007.0 hPa SSW 5.8 km/h 9.7 km/h 98% 0.0 mm
16:53 5.7 °C 6.0 °C 1007.0 hPa SSW 5.8 km/h 9.7 km/h 98% 0.0 mm
16:58 5.7 °C 6.0 °C 1007.0 hPa SSW 9.0 km/h 9.7 km/h 98% 0.0 mm
17:00 5.6 °C 6.0 °C 1007.0 hPa Calm   10.5 km/h 98% 0.0 mm
17:02 5.6 °C 6.0 °C 1007.0 hPa SW 6.1 km/h 10.5 km/h 98% 0.0 mm
17:03 5.6 °C 6.0 °C 1007.0 hPa WSW 9.3 km/h 10.5 km/h 98% 0.0 mm
17:04 5.6 °C 6.0 °C 1007.0 hPa SSW 8.7 km/h 10.5 km/h 98% 0.0 mm
17:06 5.6 °C 6.0 °C 1007.0 hPa SW 9.7 km/h 12.6 km/h 98% 0.0 mm
17:09 5.6 °C 6.0 °C 1007.0 hPa SSW 10.5 km/h 14.0 km/h 98% 0.0 mm
17:10 5.6 °C 6.0 °C 1007.0 hPa SSW 7.9 km/h 14.0 km/h 98% 0.0 mm
17:13 5.6 °C 6.0 °C 1007.0 hPa SW 7.2 km/h 14.0 km/h 98% 0.0 mm
17:14 5.6 °C 6.0 °C 1007.0 hPa SW 8.7 km/h 14.0 km/h 98% 0.0 mm
17:17 5.6 °C 6.0 °C 1007.0 hPa WSW 10.1 km/h 14.0 km/h 98% 0.0 mm
17:18 5.6 °C 6.0 °C 1007.0 hPa WSW 11.9 km/h 13.0 km/h 98% 0.0 mm
17:19 5.6 °C 6.0 °C 1007.0 hPa SSW 9.7 km/h 13.0 km/h 98% 0.0 mm
17:21 5.6 °C 6.0 °C 1007.0 hPa SW 10.5 km/h 15.4 km/h 98% 0.0 mm
17:22 5.6 °C 6.0 °C 1007.0 hPa SW 6.9 km/h 15.4 km/h 98% 0.0 mm
17:24 5.6 °C 6.0 °C 1007.0 hPa SSW 7.6 km/h 15.4 km/h 98% 0.0 mm
17:26 5.6 °C 6.0 °C 1007.0 hPa SSW 8.7 km/h 15.4 km/h 98% 0.0 mm
17:27 5.6 °C 6.0 °C 1007.0 hPa SSW 10.5 km/h 15.4 km/h 98% 0.0 mm
17:28 5.6 °C 6.0 °C 1007.0 hPa SSW 6.4 km/h 15.4 km/h 98% 0.0 mm
17:30 5.6 °C 6.0 °C 1007.0 hPa SSW 5.8 km/h 14.0 km/h 98% 0.0 mm
17:31 5.6 °C 6.0 °C 1007.0 hPa WSW 6.9 km/h 13.7 km/h 98% 0.0 mm
17:32 5.6 °C 6.0 °C 1007.0 hPa SW 10.1 km/h 11.9 km/h 98% 0.0 mm
17:33 5.6 °C 6.0 °C 1007.0 hPa SW 8.7 km/h 11.6 km/h 98% 0.0 mm
17:34 5.6 °C 6.0 °C 1007.0 hPa South 9.7 km/h 11.6 km/h 98% 0.0 mm
17:35 5.5 °C 6.0 °C 1007.0 hPa Calm   11.6 km/h 98% 0.0 mm
17:38 5.5 °C 6.0 °C 1007.0 hPa SSW 9.0 km/h 10.1 km/h 98% 0.0 mm
17:39 5.5 °C 6.0 °C 1007.0 hPa SW 9.0 km/h 10.1 km/h 98% 0.0 mm
17:41 5.5 °C 6.0 °C 1007.0 hPa SSW 7.9 km/h 10.1 km/h 98% 0.0 mm
17:42 5.5 °C 6.0 °C 1007.0 hPa SSW 9.3 km/h 10.1 km/h 98% 0.0 mm
17:43 5.5 °C 6.0 °C 1007.0 hPa Calm   10.1 km/h 98% 0.0 mm
17:44 5.5 °C 6.0 °C 1007.0 hPa Calm   10.1 km/h 98% 0.0 mm
17:45 5.5 °C 6.0 °C 1007.0 hPa Calm   10.1 km/h 98% 0.0 mm
17:46 5.5 °C 6.0 °C 1007.0 hPa Calm   10.1 km/h 98% 0.0 mm
17:48 5.5 °C 6.0 °C 1007.0 hPa Calm   9.7 km/h 98% 0.0 mm
17:51 5.5 °C 6.0 °C 1007.0 hPa Calm   9.3 km/h 98% 0.0 mm
17:52 5.4 °C 6.0 °C 1007.0 hPa SW 6.9 km/h 9.0 km/h 98% 0.0 mm
17:53 5.4 °C 6.0 °C 1007.0 hPa SSW 7.9 km/h 9.0 km/h 98% 0.0 mm
17:54 5.4 °C 6.0 °C 1007.0 hPa SW 5.8 km/h 7.9 km/h 98% 0.0 mm
17:58 5.4 °C 6.0 °C 1007.0 hPa SW 5.8 km/h 9.3 km/h 98% 0.0 mm
17:59 5.4 °C 6.0 °C 1007.0 hPa SW 5.5 km/h 9.3 km/h 98% 0.0 mm
18:00 5.4 °C 6.0 °C 1007.0 hPa SW 5.5 km/h 9.3 km/h 98% 0.0 mm
18:01 5.4 °C 6.0 °C 1007.0 hPa SSW 6.1 km/h 9.3 km/h 98% 0.0 mm
18:03 5.4 °C 6.0 °C 1007.0 hPa Calm   9.3 km/h 98% 0.0 mm
18:04 5.4 °C 6.0 °C 1007.0 hPa SW 5.5 km/h 9.3 km/h 98% 0.0 mm
18:05 5.4 °C 6.0 °C 1007.0 hPa SSW 5.0 km/h 9.3 km/h 98% 0.0 mm
18:06 5.4 °C 6.0 °C 1007.0 hPa SSW 4.0 km/h 9.3 km/h 98% 0.0 mm
18:07 5.4 °C 6.0 °C 1007.0 hPa Calm   7.9 km/h 98% 0.0 mm
18:08 5.4 °C 6.0 °C 1007.0 hPa Calm   7.9 km/h 98% 0.0 mm
18:09 5.4 °C 6.0 °C 1007.0 hPa SSW 4.3 km/h 7.9 km/h 98% 0.0 mm
18:10 5.4 °C 6.0 °C 1007.0 hPa Calm   7.9 km/h 98% 0.0 mm
18:11 5.4 °C 6.0 °C 1007.0 hPa Calm   7.9 km/h 98% 0.0 mm
18:12 5.4 °C 6.0 °C 1007.0 hPa SSW 2.1 km/h 7.9 km/h 98% 0.0 mm
18:13 5.4 °C 6.0 °C 1007.0 hPa South 8.7 km/h 8.7 km/h 98% 0.0 mm
18:14 5.4 °C 6.0 °C 1007.0 hPa South 6.4 km/h 10.5 km/h 98% 0.0 mm
18:17 5.5 °C 6.0 °C 1007.0 hPa SSW 4.3 km/h 10.5 km/h 98% 0.0 mm
18:18 5.5 °C 6.0 °C 1007.0 hPa SSW 4.3 km/h 10.5 km/h 98% 0.0 mm
18:22 5.5 °C 6.0 °C 1007.0 hPa SSW 5.5 km/h 10.5 km/h 98% 0.0 mm
18:26 5.5 °C 6.0 °C 1007.0 hPa SSW 6.1 km/h 10.5 km/h 98% 0.0 mm
18:27 5.5 °C 6.0 °C 1007.0 hPa SSW 6.1 km/h 10.5 km/h 98% 0.0 mm
18:28 5.5 °C 6.0 °C 1007.0 hPa Calm   10.5 km/h 98% 0.0 mm
18:34 5.6 °C 6.0 °C 1007.0 hPa Calm   10.1 km/h 98% 0.0 mm
18:39 5.6 °C 6.0 °C 1007.0 hPa Calm   10.1 km/h 98% 0.0 mm
18:46 5.6 °C 6.0 °C 1007.0 hPa SSW 9.7 km/h 10.1 km/h 98% 0.0 mm
18:50 5.6 °C 6.0 °C 1007.0 hPa SSW 4.0 km/h 10.1 km/h 98% 0.0 mm
18:55 5.6 °C 6.0 °C 1007.0 hPa SSW 6.1 km/h 10.5 km/h 98% 0.0 mm
18:57 5.6 °C 6.0 °C 1007.0 hPa SW 5.8 km/h 10.5 km/h 98% 0.0 mm
18:58 5.6 °C 6.0 °C 1007.0 hPa SSW 6.9 km/h 10.5 km/h 98% 0.0 mm
18:59 5.6 °C 6.0 °C 1007.0 hPa SSW 5.8 km/h 10.5 km/h 98% 0.0 mm
19:00 5.6 °C 6.0 °C 1007.0 hPa SSW 4.7 km/h 10.5 km/h 98% 0.0 mm
19:05 5.6 °C 6.0 °C 1007.0 hPa Calm   10.1 km/h 98% 0.0 mm
19:06 5.6 °C 6.0 °C 1007.0 hPa WSW 5.5 km/h 9.0 km/h 98% 0.0 mm
19:13 5.6 °C 6.0 °C 1007.0 hPa SSW 4.0 km/h 10.5 km/h 98% 0.0 mm
19:20 5.7 °C 6.0 °C 1007.0 hPa South 5.0 km/h 10.1 km/h 98% 0.0 mm
19:22 5.7 °C 6.0 °C 1007.0 hPa SW 6.4 km/h 10.1 km/h 98% 0.0 mm
19:24 5.7 °C 6.0 °C 1007.0 hPa Calm   10.1 km/h 98% 0.0 mm
19:25 5.7 °C 6.0 °C 1007.0 hPa Calm   10.1 km/h 98% 0.0 mm
19:27 5.7 °C 6.0 °C 1007.0 hPa Calm   10.1 km/h 98% 0.0 mm
19:28 5.7 °C 6.0 °C 1007.0 hPa Calm   10.1 km/h 98% 0.0 mm
19:34 5.7 °C 6.0 °C 1007.0 hPa Calm   7.9 km/h 98% 0.0 mm
19:35 5.7 °C 6.0 °C 1007.0 hPa Calm   7.9 km/h 98% 0.0 mm
19:37 5.7 °C 6.0 °C 1007.0 hPa Calm   9.3 km/h 98% 0.0 mm
19:38 5.7 °C 6.0 °C 1007.0 hPa Calm   9.3 km/h 98% 0.0 mm
19:41 5.7 °C 6.0 °C 1007.0 hPa SSW 6.1 km/h 9.3 km/h 98% 0.0 mm
19:46 5.7 °C 6.0 °C 1006.0 hPa Calm   6.9 km/h 98% 0.0 mm
19:51 5.7 °C 6.0 °C 1006.0 hPa Calm   6.9 km/h 98% 0.0 mm
19:52 5.7 °C 6.0 °C 1006.0 hPa Calm   6.9 km/h 98% 0.0 mm
19:56 5.7 °C 6.0 °C 1007.0 hPa Calm   6.1 km/h 98% 0.0 mm
20:02 5.7 °C 6.0 °C 1007.0 hPa Calm   6.4 km/h 98% 0.0 mm
20:04 5.7 °C 6.0 °C 1007.0 hPa Calm   6.4 km/h 98% 0.0 mm
20:09 5.7 °C 6.0 °C 1007.0 hPa South 1.4 km/h 5.5 km/h 98% 0.0 mm
20:14 5.7 °C 6.0 °C 1007.0 hPa Calm   4.0 km/h 98% 0.0 mm
20:18 5.7 °C 6.0 °C 1007.0 hPa South 1.4 km/h 3.5 km/h 98% 0.0 mm
Données Historique de Météo Turbie

Mise a jour : 22/05/2018 19:56:12
Généré par Cumulus 1.9.4 (1099)